FENGYUN 1C DEB, 30846

Orbit data source: Space-Track

FENGYUN 1C DEB, 30846 is space debris in SSO originally from a launch on Mon, 10 May 1999 UTC launched from the Taiyaun Space Center, China (TSC). Fengyun 1C debris stems from the Chinese weather satellite Fengyun-1C, which was intentionally destroyed by a Chinese anti-satellite missile in 2007. This event dramatically increased the amount of space debris, with thousands of trackable fragments posing hazards to satellites and human spaceflight. The Fengyun 1C debris cloud has become a focal point in discussions about space sustainability and the need for international regulations to prevent the creation of new debris.

Loading next visibility...
Identifier
30846, 1999-025AWG
Orbit
SSO
Country
Flag of CNCN / PRC
Related business
Manufacturer
Unknown
Mission
Spacecraft
Bus & Motor
Unknown
Mass
Unknown
Launch date (UTC)
1999-05-10 (27 years ago)
Launch vehicle
Unknown
Launch site
Taiyaun Space Center, China (TSC)
Object type
Payload
Rocket body
Debris
Shape & HBR
Unknown shape, 0.1 m
Radar Cross Section
Small (<0.1 m²)

Expand to show TLE details & history
Last TLE update: 20 hours ago

TLE from 20 hours ago
0 FENGYUN 1C DEB
1 30846U 99025AWG 26253.28527007  .00001297  00000-0  39856-3 0  9998
2 30846  99.3206  96.5470 0051811 260.2887 155.2391 14.42792593 18351
Epoch: 2026-09-10T06:50Z
TLE epoch observation values (Epoch: 2026-09-10T06:50:47.334Z)
Latitude
54.7798°
Longitude
-8.84632°
Altitude
791.87 km
Speed
7.445 km/s
True Right ascension
05h 32m 42s
True Declination
54° 37' 06"
Sunlit
Object was in daylight at epoch
Visualization orbit readout
Latitude
Unknown
Longitude
Unknown
Altitude
Unknown
Speed
Unknown
Apparent Right ascension
Unknown
Apparent Declination
Unknown
Sunlit
N/A
Visualization observer readout
Local Sidereal Time
18:40:51
Azimuth
Unknown
Elevation
Unknown
Doppler factor
Unknown
Orbital elements
Apogee altitude
783.358 km
Perigee altitude
709.532 km
Semi-major axis
7,124.582 km
Eccentricity
0.00518
Inclination
99.3206°
RAAN
96.547°
Arg. of periapsis
260.2887°
True anomaly
155.48631°
Mean anomaly
155.2391°
Eccentric anomaly
155.36285°
Mean motion
3.60914 °/min
Orbital period
99.75 mins
BSTAR
0.00039856
Loading maneuver chart data...
Computing Atmospheric mass density...

Documentation

Showing up to 5 results
|